This demonstration page uses our WeatherBlox Daily Observations layout. Learn more.

39.01783, -85.05884

Hourly Observations for January 16, 2021

Temp ( °F °C ) Dew Point ( °F °C ) Humidity (%) Winds ( mph kmh ) Pressure ( in mb ) Visibility ( mi km ) Precip ( " mm )
12:09 am 00:09 Cloudy 35 1.7 25 -3.9 67 67 WSW 5 7 29.65 1004 10 16.0934 0 0
12:41 am 00:41 Cloudy with Light Snow 33 0.6 28 -2.2 82 82 W 10 17 29.66 1005 1.75 2.816345 0.001 0.001
12:52 am 00:52 Cloudy with Light Snow 32 0 29 -1.7 88 88 W 9 15 29.62 1003 2.5 4.02335 0.001 0.001
1:03 am 01:03 Cloudy with Light Snow 32 0 28 -2.2 85 85 W 9 15 29.66 1004 3 4.82802 0.001 0.001
1:52 am 01:52 Cloudy with Light Snow 31 -0.6 28 -2.2 89 89 SW 5 7 29.62 1003 4 6.43736 0.001 0.001
1:59 am 01:59 Cloudy 31 -0.6 28 -2.2 89 89 SW 3 6 29.66 1004 7 11.26538 0.001 0.001
2:52 am 02:52 Cloudy 31 -0.6 28 -2.2 89 89 SSW 7 11 29.61 1003 10 16.0934 0.001 0.001
3:16 am 03:16 Cloudy 31 -0.6 28 -2.2 89 89 SW 5 7 29.66 1004 10 16.0934 0 0
3:45 am 03:45 Mostly Cloudy 30 -1.1 27 -2.8 88 88 SSW 7 11 29.66 1004 10 16.0934 0 0
3:52 am 03:52 Mostly Cloudy 30 -1.1 27 -2.8 88 88 SSW 5 7 29.62 1003 9 14.48406 0 0
4:10 am 04:10 Mostly Cloudy 30 -1.1 27 -2.8 88 88 SSW 5 7 29.65 1004 9 14.48406 0 0
4:52 am 04:52 Cloudy 31 -0.6 28 -2.2 89 89 SW 6 9 29.61 1003 7 11.26538 0 0
5:52 am 05:52 Cloudy 29 -1.7 26 -3.3 89 89 SSW 6 9 29.61 1003 8 12.87472 0 0
6:26 am 06:26 Cloudy 29 -1.7 26 -3.3 89 89 SSW 6 9 29.65 1004 7 11.26538 0 0
6:52 am 06:52 Cloudy 29 -1.7 27 -2.8 92 92 S 5 7 29.62 1003 7 11.26538 0 0
7:23 am 07:23 Cloudy 29 -1.7 27 -2.8 92 92 SW 3 6 29.66 1004 7 11.26538 0 0
7:52 am 07:52 Cloudy 30 -1.1 28 -2.2 92 92 WSW 3 6 29.63 1003 7 11.26538 0 0
8:52 am 08:52 Cloudy with Mist and Fog 31 -0.6 28 -2.2 89 89 WSW 6 9 29.65 1004 5 8.0467 0 0
9:52 am 09:52 Cloudy with Mist and Fog 31 -0.6 28 -2.2 89 89 WNW 9 15 29.67 1005 6 9.65604 0 0
10:52 am 10:52 Cloudy 32 0 26 -3.3 79 79 W 10 17 29.69 1005 10 16.0934 0 0
11:52 am 11:52 Cloudy 33 0.6 26 -3.3 75 75 W 8 13 29.67 1005 10 16.0934 0 0
12:52 pm 12:52 Cloudy 34 1.1 26 -3.3 73 73 W 14 22 29.66 1005 10 16.0934 0 0
1:52 pm 13:52 Cloudy 34 1.1 24 -4.4 67 67 WSW 12 19 29.66 1005 10 16.0934 0 0
2:52 pm 14:52 Cloudy 35 1.7 24 -4.4 64 64 WSW 10 17 29.67 1005 10 16.0934 0 0
3:32 pm 15:32 Cloudy with Light Snow 34 1.1 25 -3.9 70 70 SW 16 26 29.72 1006 2 3.21868 0.001 0.001
3:37 pm 15:37 Cloudy with Light Snow 33 0.6 26 -3.3 75 75 SW 12 19 29.72 1007 0.75 1.207005 0.001 0.001
3:52 pm 15:52 Cloudy with Light Snow 32 0 27 -2.8 82 82 SW 9 15 29.7 1006 0.75 1.207005 0.01 0.254
4:08 pm 16:08 Cloudy with Light Snow 32 0 28 -2.2 85 85 SW 13 20 29.74 1007 1.25 2.011675 0.001 0.001
4:35 pm 16:35 Cloudy with Light Snow 33 0.6 28 -2.2 82 82 SW 13 20 29.74 1007 2.5 4.02335 0.001 0.001
4:50 pm 16:50 Cloudy with Light Snow 34 1 28 -2 81 81 SW 12 19 29.74 1007 2.5 4.02335 0.001 0.001
4:52 pm 16:52 Cloudy with Light Snow 33 0.6 28 -2.2 82 82 SW 9 15 29.71 1006 2.5 4.02335 0.001 0.001
5:41 pm 17:41 Cloudy with Light Snow 32 0 29 -1.7 88 88 SW 12 19 29.76 1008 1.75 2.816345 0.01 0.254
5:52 pm 17:52 Cloudy with Light Snow 32 0 29 -1.7 88 88 SW 12 19 29.73 1007 2.5 4.02335 0.01 0.254
6:09 pm 18:09 Cloudy with Light Snow 32 0 29 -1.7 88 88 WSW 10 17 29.77 1008 2 3.21868 0.001 0.001
6:52 pm 18:52 Cloudy with Light Snow 33 0.6 30 -1.1 89 89 WSW 9 15 29.75 1007 3 4.82802 0.01 0.254
7:19 pm 19:19 Cloudy with Light Snow 33 0.6 30 -1.1 89 89 WSW 12 19 29.77 1008 2.5 4.02335 0.001 0.001
7:26 pm 19:26 Cloudy with Light Snow 33 0.6 30 -1.1 89 89 WSW 13 20 29.77 1008 3 4.82802 0.001 0.001
7:52 pm 19:52 Cloudy with Light Snow 34 1.1 30 -1.1 85 85 WSW 12 19 29.75 1008 5 8.0467 0.001 0.001
8:52 pm 20:52 Cloudy with Light Snow 34 1.1 30 -1.1 85 85 WSW 10 17 29.75 1008 4 6.43736 0.001 0.001
9:52 pm 21:52 Cloudy 34 1.1 30 -1.1 85 85 WSW 9 15 29.76 1008 9 14.48406 0.001 0.001
10:52 pm 22:52 Cloudy 34 1.1 30 -1.1 85 85 WSW 9 15 29.77 1008 10 16.0934 0 0
11:52 pm 23:52 Cloudy 34 1.1 30 -1.1 85 85 SW 9 15 29.77 1008 10 16.0934 0 0

Powered by AerisWeather